MST,Max TemperatureF,Mean TemperatureF,Min TemperatureF,Max Dew PointF,MeanDew PointF,Min DewpointF,Max Humidity, Mean Humidity, Min Humidity, Max Sea Level PressureIn, Mean Sea Level PressureIn, Min Sea Level PressureIn, Max VisibilityMiles, Mean VisibilityMiles, Min VisibilityMiles, Max Wind SpeedMPH, Mean Wind SpeedMPH, Max Gust SpeedMPH,PrecipitationIn, CloudCover, Events, WindDirDegrees
2013-5-1,92,76,60,21,16,7,20,12,4,29.97,29.85,29.74,10,10,10,16,6,23,0.00,0,,229
2013-5-2,93,76,59,23,16,5,23,14,4,30.04,29.97,29.91,10,10,10,25,9,33,0.00,0,,98
2013-5-3,89,76,62,20,13,5,19,12,4,30.00,29.87,29.73,10,10,10,36,16,44,0.00,0,,108
2013-5-4,93,78,62,25,14,9,14,10,5,29.85,29.70,29.63,10,10,10,22,10,32,0.00,0,,196
2013-5-5,90,78,65,49,26,17,27,17,7,29.98,29.80,29.70,10,10,10,28,12,37,T,1,Rain,205
2013-5-6,85,74,62,49,38,29,52,33,13,29.92,29.87,29.82,10,10,10,20,10,25,0.01,1,,211
2013-5-7,85,74,62,44,33,21,45,28,10,30.02,29.89,29.80,10,10,10,22,9,29,0.00,0,,217
2013-5-8,83,71,58,41,36,30,51,33,15,29.99,29.93,29.85,10,10,10,17,6,22,0.00,0,,276
2013-5-9,84,71,58,41,31,21,47,29,11,30.00,29.91,29.82,10,10,10,14,6,18,0.00,0,,280
2013-5-10,87,73,59,38,33,26,39,25,11,30.01,29.94,29.85,10,10,10,24,8,32,0.00,0,,137
2013-5-11,89,74,58,36,32,27,36,25,13,30.06,29.99,29.93,10,10,10,23,9,29,0.00,0,,106
2013-5-12,92,80,68,36,29,22,28,18,8,30.11,29.99,29.88,10,10,10,24,11,30,0.00,0,,95
2013-5-13,96,84,71,29,22,11,19,13,6,30.10,29.92,29.83,10,10,10,21,11,29,0.00,0,,112
2013-5-14,97,84,71,34,28,21,23,15,7,29.92,29.85,29.75,10,10,10,17,7,22,0.00,0,,177
2013-5-15,98,88,77,34,30,25,24,16,8,30.05,29.91,29.81,10,10,10,21,11,27,0.00,0,,235
2013-5-16,98,84,69,28,23,14,20,13,5,29.88,29.79,29.69,10,10,10,21,9,26,0.00,0,,186
2013-5-17,95,80,65,32,23,11,26,16,6,29.95,29.80,29.73,10,10,10,21,9,28,0.00,0,,208
2013-5-18,91,79,67,41,26,15,27,17,7,29.97,29.82,29.76,10,10,10,20,8,30,0.00,0,,237
2013-5-19,92,78,64,41,33,21,40,24,8,29.96,29.82,29.72,10,10,10,17,7,24,0.00,0,,251
2013-5-20,93,79,65,61,28,18,54,31,7,29.94,29.80,29.73,10,10,10,21,10,31,0.00,0,,294
2013-5-21,95,79,62,21,13,4,18,11,3,29.86,29.78,29.70,10,10,10,15,7,20,0.00,0,,202
2013-5-22,99,83,67,25,19,9,18,12,5,29.76,29.68,29.60,10,10,10,17,9,25,0.00,0,,190
2013-5-23,98,83,67,33,25,10,22,13,4,29.78,29.73,29.68,10,10,10,21,10,27,0.00,0,,209
2013-5-24,98,83,67,41,23,0,30,17,3,29.86,29.80,29.75,10,10,10,17,8,23,0.00,0,,219
2013-5-25,97,82,66,33,20,2,24,14,3,29.88,29.83,29.78,10,10,10,21,9,26,0.00,0,,208
2013-5-26,96,79,62,24,12,-5,22,12,2,29.90,29.85,29.79,10,10,10,21,8,27,0.00,0,,217
2013-5-27,98,79,60,25,10,-13,16,9,1,29.84,29.75,29.66,10,10,10,17,6,23,0.00,0,,199
2013-5-28,95,80,64,31,20,10,18,12,5,29.71,29.63,29.55,10,10,10,20,8,32,0.00,0,,231
2013-5-29,94,81,67,50,32,25,33,21,8,29.73,29.65,29.59,10,10,10,18,7,26,0.00,0,,250
2013-5-30,97,84,70,55,42,30,44,27,10,29.78,29.72,29.66,10,10,10,16,7,27,0.00,0,,237
2013-5-31,99,86,73,57,44,30,54,32,9,29.86,29.76,29.68,10,10,10,17,7,22,0.00,0,,316